Regional Weather Roundup
Issued by NWS Charleston, WV

Home | Current Version | Previous Version | Graphics & Text | Print | Product List | Glossary On
Versions: 1 2 3 4 5 6 7 8 9 10 11 12 13 14 15 16 17 18 19 20 21 22 23 24 25 26 27 28 29 30 31 32 33 34 35 36 37 38 39 40 41 42 43 44 45 46 47 48 49 50
000
ASUS41 KRLX 222110
RWRRLX
West Virginia Regional Weather Roundup
National Weather Service Charleston WV
500 PM EDT FRI MAY 22 2015

Note: "fair" indicates few or no clouds below 12,000 feet with no
significant weather and/or obstructions to visibility.

WVZ003-222200-
Northern Panhandle of West Virginia

CITY           SKY/WX    TMP DP  RH WIND       PRES   REMARKS
WHEELING         N/A     64  45  48 W12G23    30.17R
$$

WVZ009-222200-
Northwest West Virginia

CITY           SKY/WX    TMP DP  RH WIND       PRES   REMARKS
PARKERSBURG    CLOUDY    72  44  36 W15G22    30.20S
$$

WVZ006-222200-
Western West Virginia

CITY           SKY/WX    TMP DP  RH WIND       PRES   REMARKS
HUNTINGTON     MOSUNNY   72  41  32 SW10G17   30.21F
$$

WVZ015-222200-
West Central West Virginia

CITY           SKY/WX    TMP DP  RH WIND       PRES   REMARKS
CHARLESTON     PTSUNNY   72  45  37 W12G17    30.22S
$$

WVZ022-031-222200-
North Central West Virginia

CITY           SKY/WX    TMP DP  RH WIND       PRES   REMARKS
CLARKSBURG     MOSUNNY   69  44  40 W10       30.17S
MORGANTOWN     PTSUNNY   63  48  58 NW7       30.18S
$$

WVZ025-035-042-045-222200-
Southern West Virginia

CITY           SKY/WX    TMP DP  RH WIND       PRES   REMARKS
BECKLEY        MOSUNNY   66  38  35 NW7       30.25S
LOGAN            N/A     68  43  40 S6        30.22S
BLUEFIELD      MOSUNNY   65  39  38 W12G17    30.28R
LEWISBURG      MOSUNNY   68  33  27 N8        30.23R
$$

WVZ047-222200-
Northern Mountains of West Virginia

CITY           SKY/WX    TMP DP  RH WIND       PRES   REMARKS
ELKINS         PTSUNNY   64  39  39 W12G20    30.21S
$$

WVZ052-222200-
Eastern Panhandle of West Virginia

CITY           SKY/WX    TMP DP  RH WIND       PRES   REMARKS
MARTINSBURG    MOSUNNY   72  41  32 W23G32    30.10R
PETERSBURG     MOSUNNY   68  37  31 W10G18    30.15R
$$


USA.gov is the U.S. government's official web portal to all federal, state and local government web resources and services.